Location: Ward Pound Ridge Reservation
(41.2500°N, 73.6000°W)
Time: 03:46:53
(UTC-04:00)

Hubble Space Telescope - Pass Details

Date: 08 October 2017
Orbit: 537 x 541 km, 28.5° (Epoch: 23 October)

Event Time Altitude Azimuth Distance (km) Brightness Sun altitude
Exits shadow 05:27:10 12° 195° (SSW) 1,654 3.0 -18.0°
Maximum altitude 05:27:36 12° 188° (S) 1,645 3.1 -17.9°
Drops below altitude 10° 05:29:18 10° 164° (SSE) 1,787 3.5 -17.6°
Sets 05:32:46 0° 134° (SE) 2,677 4.9 -16.9°
